Carroll, IA

7:28 PM CST on December 11, 2017 (GMT -0600)
Neu

Weather History for KCIN - April, 2014

Change the Weather History Date:

Monday, April 28, 2014

  Actual Average Record
Temperature  
Mean Temperature 54 °F -  
Max Temperature 59 °F 66 °F 92 °F (1970)
Min Temperature 48 °F 39 °F 25 °F (1965)
Degree Days  
Heating Degree Days 12    
Growing Degree Days 4 (Base 50)    
Moisture  
Dew Point 53 °F    
Average Humidity 95    
Maximum Humidity 100    
Minimum Humidity 88    
Precipitation  
Precipitation 0.38 in - - ()
Sea Level Pressure  
Sea Level Pressure 29.33 in    
Wind  
Wind Speed 17 mph (East)    
Max Wind Speed 26 mph    
Max Gust Speed 33 mph    
Visibility 6 miles    
Events Fog , Rain    
Averages and records for this station are not official NWS values.
T = Trace of Precipitation, MM = Missing Value Source: NWS Daily Summary

Daily Weather History Graph

Daily Weather History Graph

Search for Another Location

Airport or City:

Trip Planner

Search our weather history database for the weather conditions in past years. The results will help you decide how hot, cold, wet, or windy it might be!

Date:

Astronomy

Apr. 28, 2014 Rise Set
Actual Time 6:19 AM CDT 8:14 PM CDT
Civil Twilight 5:48 AM CDT 8:45 PM CDT
Nautical Twilight 5:12 AM CDT 9:22 PM CDT
Astronomical Twilight 4:32 AM CDT 10:02 PM CDT
Moon 5:58 AM CDT (4/28) 7:53 PM CDT (4/28)
Length of Visible Light 14h 56m
Length of Day
13h 55m
Waning Crescent, 0% of the Moon is Illuminated
Apr 28
Waning Crescent
Apr 29
New
May 6
First Quarter
May 14
Full
May 21
Last Quarter

Hourly Weather History & Observations

Time (CDT) Temp. Dew Point Humidity Pressure Visibility Wind Dir Wind Speed Gust Speed Precip Events Conditions
12:15 AM 57.2 °F 55.4 °F 94% 29.40 in 10.0 mi ESE 19.6 mph - N/A   Overcast
12:35 AM 57.2 °F 55.4 °F 94% 29.40 in 10.0 mi ESE 18.4 mph 24.2 mph N/A   Overcast
12:55 AM 57.2 °F 55.4 °F 94% 29.40 in 10.0 mi SE 19.6 mph - N/A   Overcast
1:15 AM 57.2 °F 53.6 °F 88% 29.39 in 10.0 mi ESE 19.6 mph 28.8 mph N/A   Mostly Cloudy
1:35 AM 55.4 °F 53.6 °F 94% 29.38 in 10.0 mi ESE 20.7 mph - N/A   Overcast
1:55 AM 55.4 °F 53.6 °F 94% 29.37 in 10.0 mi East 20.7 mph 27.6 mph N/A   Overcast
2:15 AM 55.4 °F 51.8 °F 88% 29.36 in 10.0 mi East 18.4 mph 26.5 mph N/A   Mostly Cloudy
2:35 AM 53.6 °F 51.8 °F 94% 29.36 in 10.0 mi East 17.3 mph 23.0 mph N/A   Overcast
2:55 AM 53.6 °F 51.8 °F 94% 29.35 in 10.0 mi East 20.7 mph - N/A   Overcast
3:15 AM 53.6 °F 53.6 °F 100% 29.34 in 10.0 mi East 17.3 mph - N/A   Overcast
3:35 AM 55.4 °F 53.6 °F 94% 29.34 in 10.0 mi ESE 18.4 mph 25.3 mph N/A   Overcast
3:55 AM 55.4 °F 53.6 °F 94% 29.32 in 10.0 mi East 17.3 mph - N/A   Overcast
4:15 AM 55.4 °F 55.4 °F 100% 29.32 in 10.0 mi ESE 18.4 mph - N/A   Overcast
4:35 AM 57.2 °F 55.4 °F 94% 29.31 in 9.0 mi East 20.7 mph 28.8 mph N/A   Overcast
4:55 AM 57.2 °F 57.2 °F 100% 29.30 in 9.0 mi East 23.0 mph 28.8 mph N/A   Overcast
5:15 AM 57.2 °F 57.2 °F 100% 29.30 in 5.0 mi East 21.9 mph 27.6 mph N/A   Overcast
5:35 AM 57.2 °F 57.2 °F 100% 29.30 in 5.0 mi ESE 18.4 mph 25.3 mph N/A   Overcast
5:55 AM 57.2 °F 57.2 °F 100% 29.30 in 6.0 mi ESE 18.4 mph 25.3 mph N/A   Overcast
6:15 AM 57.2 °F 57.2 °F 100% 29.30 in 6.0 mi ESE 16.1 mph - N/A   Overcast
6:35 AM 57.2 °F 57.2 °F 100% 29.31 in 6.0 mi ESE 16.1 mph - N/A   Overcast
6:55 AM 57.2 °F 57.2 °F 100% 29.32 in 2.0 mi ESE 16.1 mph - N/A   Overcast
7:15 AM 57.2 °F 55.4 °F 94% 29.32 in 1.2 mi East 17.3 mph 24.2 mph N/A   Overcast
7:35 AM 57.2 °F 55.4 °F 94% 29.32 in 1.0 mi ESE 17.3 mph - N/A   Overcast
7:55 AM 57.2 °F 55.4 °F 94% 29.30 in 1.5 mi East 21.9 mph - N/A   Overcast
8:15 AM 57.2 °F 55.4 °F 94% 29.30 in 3.0 mi ESE 20.7 mph 26.5 mph N/A   Mostly Cloudy
8:35 AM 57.2 °F 57.2 °F 100% 29.30 in 4.0 mi ESE 17.3 mph 24.2 mph N/A   Mostly Cloudy
8:55 AM 57.2 °F 57.2 °F 100% 29.30 in 6.0 mi East 18.4 mph - N/A   Overcast
9:15 AM 59.0 °F 57.2 °F 94% 29.28 in 9.0 mi East 20.7 mph - N/A   Overcast
9:35 AM 57.2 °F 57.2 °F 100% 29.29 in 3.0 mi East 18.4 mph 25.3 mph N/A   Overcast
9:55 AM 55.4 °F 55.4 °F 100% 29.29 in 2.5 mi East 20.7 mph 27.6 mph N/A   Overcast
10:15 AM 55.4 °F 53.6 °F 94% 29.29 in 1.2 mi East 19.6 mph 28.8 mph N/A   Overcast
10:35 AM 53.6 °F 53.6 °F 100% 29.29 in 0.5 mi East 24.2 mph 33.4 mph N/A Fog Fog
11:15 AM 53.6 °F 53.6 °F 100% 29.30 in 1.0 mi East 23.0 mph 29.9 mph N/A   Overcast
11:35 AM 53.6 °F 53.6 °F 100% 29.31 in 1.5 mi East 17.3 mph 29.9 mph N/A   Overcast
12:15 PM 55.4 °F 53.6 °F 94% 29.31 in 2.0 mi East 19.6 mph 26.5 mph N/A   Overcast
12:35 PM 55.4 °F 55.4 °F 100% 29.30 in 2.5 mi East 21.9 mph 28.8 mph N/A   Overcast
12:55 PM 57.2 °F 55.4 °F 94% 29.29 in 3.0 mi East 23.0 mph - N/A   Overcast
1:15 PM 59.0 °F 57.2 °F 94% 29.28 in 4.0 mi East 21.9 mph - N/A   Mostly Cloudy
1:35 PM 59.0 °F 57.2 °F 94% 29.27 in 5.0 mi East 26.5 mph 32.2 mph N/A   Mostly Cloudy
1:55 PM 57.2 °F 55.4 °F 94% 29.27 in 4.0 mi East 23.0 mph - N/A   Mostly Cloudy
2:15 PM 59.0 °F 57.2 °F 94% 29.25 in 5.0 mi East 23.0 mph 31.1 mph N/A   Overcast
2:35 PM 57.2 °F 55.4 °F 94% 29.26 in 4.0 mi East 20.7 mph 28.8 mph N/A   Mostly Cloudy
2:55 PM 55.4 °F 55.4 °F 100% 29.27 in 3.0 mi East 21.9 mph 28.8 mph N/A   Overcast
3:35 PM 55.4 °F 53.6 °F 94% 29.31 in 1.5 mi East 18.4 mph 31.1 mph N/A Rain Rain
4:15 PM 53.6 °F 53.6 °F 100% 29.32 in 1.5 mi East 18.4 mph - N/A Rain Light Rain
4:35 PM 53.6 °F 51.8 °F 94% 29.32 in 6.0 mi East 12.7 mph - N/A   Overcast
4:55 PM 55.4 °F 53.6 °F 94% 29.32 in 4.0 mi East 15.0 mph - 0.14 in   Overcast
5:15 PM 53.6 °F 51.8 °F 94% 29.33 in 4.0 mi ESE 17.3 mph - N/A   Overcast
5:35 PM 53.6 °F 51.8 °F 94% 29.33 in 7.0 mi ESE 11.5 mph 18.4 mph N/A   Overcast
5:55 PM 53.6 °F 51.8 °F 94% 29.34 in 2.0 mi ESE 11.5 mph 18.4 mph 0.21 in Rain Light Rain
6:15 PM 53.6 °F 51.8 °F 94% 29.34 in 3.0 mi SE 5.8 mph 12.7 mph N/A   Overcast
6:35 PM 53.6 °F 51.8 °F 94% 29.35 in 6.0 mi ENE 4.6 mph - N/A   Overcast
6:55 PM 53.6 °F 51.8 °F 94% 29.35 in 10.0 mi NE 3.5 mph - 0.01 in   Overcast
7:15 PM 53.6 °F 51.8 °F 94% 29.36 in 2.0 mi SE 8.1 mph - N/A   Overcast
7:35 PM 51.8 °F 48.2 °F 88% 29.36 in 2.0 mi South 11.5 mph - N/A   Overcast
7:55 PM 50.0 °F 48.2 °F 94% 29.37 in 2.5 mi South 6.9 mph - 0.01 in   Overcast
8:15 PM 50.0 °F 48.2 °F 94% 29.38 in 9.0 mi Calm Calm - N/A   Overcast
8:35 PM 50.0 °F 48.2 °F 94% 29.38 in 10.0 mi Calm Calm - N/A   Overcast
8:55 PM 50.0 °F 48.2 °F 94% 29.39 in 10.0 mi Calm Calm - N/A   Overcast
9:15 PM 50.0 °F 48.2 °F 94% 29.40 in 10.0 mi Calm Calm - N/A   Overcast
9:35 PM 50.0 °F 48.2 °F 94% 29.40 in 3.0 mi Calm Calm - N/A   Mostly Cloudy
9:55 PM 50.0 °F 48.2 °F 94% 29.40 in 7.0 mi Calm Calm - 0.01 in   Overcast
10:15 PM 50.0 °F 48.2 °F 94% 29.40 in 10.0 mi NNE 5.8 mph - N/A   Overcast
10:35 PM 50.0 °F 48.2 °F 94% 29.40 in 10.0 mi NNE 8.1 mph - N/A   Overcast
10:55 PM 50.0 °F 48.2 °F 94% 29.40 in 10.0 mi North 10.4 mph - N/A   Overcast
11:15 PM 48.2 °F 48.2 °F 100% 29.40 in 5.0 mi NNE 10.4 mph - N/A   Overcast
11:35 PM 48.2 °F 46.4 °F 93% 29.40 in 5.0 mi NE 12.7 mph - N/A   Overcast
11:55 PM 48.2 °F 46.4 °F 93% 29.40 in 3.0 mi NE 12.7 mph - N/A   Overcast